Location: Hackberry
(29.5783°N, 96.8797°W)
Time: 14:41:05
(UTC+00:00)

Transit 2A - Pass Details

Date: 15 November 2024
Orbit: 592 x 956 km, 66.7° (Epoch: 02 December)

Event Time Altitude Azimuth Distance (km) Brightness Sun altitude
Exits shadow 10:57:44 15° 349° (N) 2,343 8.3 -24.9°
Drops below altitude 10° 10:59:00 10° 358° (N) 2,677 8.7 -24.6°
Sets 11:02:02 0° 11° (N) 3,602 9.5 -24.0°
